Starlink 30350

operational
NORAD ID: 57746 Int'l Des: 2023-131 Owner: SPXS Country: US Constellation: starlink
LEOCIRCULAR

Über Starlink 30350

Beschreibung wird geladen...

Live-Position

3D-Globus wird geladen...

Nächste Überflüge

Höhenverlauf

Altitude vs Time

uPlot chart will show altitude changes over time

Zweizeiliger Elementsatz

1 57746U 23131Q 25310.85768694 .00000655 00000-0 63569-4 0 9992
2 57746 43.0020 119.4981 0001336 268.1289 91.9401 15.02536622121440
Epoch: 6. Nov. 2025 • Age: 25 hours

Aktueller Status

Höhe 562.7 km
Geschwindigkeit 7.58 km/s
Subsatellitenpunkt -18.62°S, 53.96°W
Startdatum 1. Sept. 2023
Alter 2.1 years
Typ internet

Technische Details

Klassifizierung Payload
Masse 730.00 kg
Trockenmasse 700.00 kg
Gesamtmasse 730.00 kg
Länge 0.30 m
Durchmesser 4.10 m
Spannweite 29.00 m
Form Box + pan
Hersteller SPXS
Bus-Typ Starlink V2M
Phasenstatus In Orbit
Besitzer/Staat SPXS/US

Große Konstellationen

Loading constellations...